Location: Stull Observatory
(42.2506°N, 77.7903°W)
Time: 09:21:08
(UTC-05:00)

ISS - All Passes

Search period start: 29 January 2015 00:00
Search period end: 08 February 2015 00:00
Orbit: 402 x 410 km, 51.6° (Epoch: 28 January)

Date Brightness Start Highest point End Pass type
(mag) Time Alt. Az. Time Alt. Az. Time Alt. Az.
29 Jan - 00:37:30 10° NW 00:39:52 18° N 00:42:15 10° NE night (unlit)
29 Jan - 02:14:55 10° NW 02:17:17 18° N 02:19:40 10° NE night (unlit)
29 Jan - 03:51:07 10° NW 03:54:21 50° NNE 03:57:36 10° ESE night (unlit)
29 Jan - 05:28:07 10° W 05:30:41 20° SW 05:33:11 10° S visible
29 Jan - 20:34:06 10° SE 20:34:51 11° SE 20:35:43 10° ESE night (unlit)
29 Jan - 22:07:39 10° SW 22:10:56 90° S 22:14:14 10° NE night (unlit)
29 Jan - 23:45:09 10° WNW 23:47:48 22° NNW 23:50:26 10° NE night (unlit)
30 Jan - 01:23:00 10° NW 01:25:10 16° N 01:27:22 10° NE night (unlit)
30 Jan - 02:59:23 10° NW 03:02:24 32° NNE 03:05:27 10° E night (unlit)
30 Jan - 04:35:52 10° WNW 04:38:58 37° SW 04:42:03 10° SSE visible
30 Jan - 21:15:58 10° SW 21:19:06 47° SE 21:22:18 10° ENE night (unlit)
30 Jan - 22:52:49 10° W 22:55:45 28° NNW 22:58:41 10° NE night (unlit)
31 Jan - 00:30:53 10° NW 00:33:02 16° N 00:35:11 10° NE night (unlit)
31 Jan - 02:07:38 10° NW 02:10:23 24° NNE 02:13:09 10° ENE night (unlit)
31 Jan - 03:43:52 10° WNW 03:47:10 72° SW 03:50:27 10° SE night (unlit)
31 Jan - 20:24:36 10° SSW 20:27:20 25° SE 20:30:08 10° ENE night (unlit)
31 Jan - 22:00:35 10° W 22:03:44 42° NNW 22:06:54 10° NE night (unlit)
31 Jan - 23:38:36 10° NW 23:40:53 17° N 23:43:09 10° NE night (unlit)
01 Feb - 01:15:49 10° NW 01:18:17 19° NNE 01:20:45 10° ENE night (unlit)
01 Feb - 02:51:59 10° NW 02:55:17 63° NNE 02:58:33 10° ESE night (unlit)
01 Feb - 04:29:19 10° W 04:31:30 16° SW 04:33:35 10° S night (unlit)
01 Feb - 19:33:54 10° SSE 19:35:37 14° SE 19:37:26 10° E visible
01 Feb - 21:08:30 10° WSW 21:11:46 72° NNW 21:15:04 10° NE night (unlit)
01 Feb - 22:46:12 10° WNW 22:48:44 20° NNW 22:51:15 10° NE night (unlit)
02 Feb - 00:23:53 10° NW 00:26:07 17° N 00:28:21 10° NE night (unlit)
02 Feb - 02:00:10 10° NW 02:03:18 38° NNE 02:06:24 10° E night (unlit)
02 Feb - 03:36:49 10° WNW 03:39:44 29° SW 03:42:39 10° SSE night (unlit)
02 Feb - 20:16:39 10° SW 20:19:53 62° SE 20:23:08 10° ENE visible
02 Feb - 21:53:47 10° WNW 21:56:36 25° NNW 21:59:24 10° NE night (unlit)
02 Feb - 23:31:47 10° NW 23:33:55 16° N 23:36:03 10° NE night (unlit)
03 Feb - 01:08:22 10° NW 01:11:13 26° NNE 01:14:06 10° E night (unlit)
03 Feb - 02:44:39 10° WNW 02:47:55 56° SW 02:51:09 10° SE night (unlit)
03 Feb - 19:25:04 10° SSW 19:28:01 32° SE 19:31:00 10° ENE visible
03 Feb - 21:01:26 10° W 21:04:29 35° NNW 21:07:35 10° NE night (unlit)
03 Feb - 22:39:30 10° NW 22:41:42 16° N 22:43:53 10° NE night (unlit)
04 Feb - 00:16:31 10° NW 00:19:04 21° NNE 00:21:39 10° ENE night (unlit)
04 Feb - 01:52:41 10° NW 01:55:59 79° NNE 01:59:17 10° ESE night (unlit)
04 Feb - 03:30:32 10° WSW 03:32:07 13° SW 03:33:35 10° SSW night (unlit)
04 Feb - 18:33:59 10° S 18:36:12 17° SE 18:38:30 10° E visible
04 Feb - 20:09:13 10° WSW 20:12:27 57° NNW 20:15:42 10° NE visible
04 Feb - 21:47:04 10° WNW 21:49:28 18° NNW 21:51:53 10° NE night (unlit)
04 Feb - 23:24:34 10° NW 23:26:52 17° N 23:29:11 10° NE night (unlit)
05 Feb - 01:00:47 10° NW 01:03:58 45° NNE 01:07:10 10° ESE night (unlit)
05 Feb - 02:37:37 10° W 02:40:19 23° SW 02:42:59 10° S night (unlit)
05 Feb - 19:17:11 10° SW 19:20:26 79° SSE 19:23:44 10° ENE visible
05 Feb - 20:54:34 10° WNW 20:57:15 23° NNW 20:59:57 10° NE visible
05 Feb - 22:32:28 10° NW 22:34:36 16° N 22:36:45 10° NE night (unlit)
06 Feb - 00:08:54 10° NW 00:11:52 30° NNE 00:14:50 10° E night (unlit)
06 Feb - 01:45:18 10° WNW 01:48:27 43° SW 01:51:35 10° SSE night (unlit)
06 Feb - 18:25:25 10° SSW 18:28:30 41° SE 18:31:37 10° ENE visible
06 Feb - 20:02:07 10° W 20:05:04 31° NNW 20:08:03 10° NE visible
06 Feb - 21:40:11 10° NW 21:42:19 16° N 21:44:28 10° NE night (unlit)
06 Feb - 23:17:00 10° NW 23:19:40 22° NNE 23:22:22 10° ENE night (unlit)
07 Feb - 00:53:11 10° WNW 00:56:30 83° SW 00:59:47 10° SE night (unlit)
07 Feb - 17:34:03 10° S 17:36:36 22° SE 17:39:14 10° E daylight
07 Feb - 19:09:45 10° WSW 19:12:56 47° NNW 19:16:07 10° NE visible
07 Feb - 20:47:43 10° NW 20:50:02 17° N 20:52:20 10° NE visible
07 Feb - 22:25:02 10° NW 22:27:24 18° N 22:29:49 10° ENE night (unlit)
